Tracking 30986 objects as of 9-Jul-2025
HD Live streaming from Space Station
objects crossing your sky now

SBS 3

Track SBS 3 now!
SBS 3 is classified as:


NORAD ID: 13651
Int'l Code: 1982-110B
Perigee: 35,852.0 km
Apogee: 35,921.8 km
Inclination: 12.9 °
Period: 1,440.9 minutes
Semi major axis: 42257 km
RCS: 15.8489 m2 (large)
Launch date: November 11, 1982
Source: United States (US)
Launch site: AIR FORCE EASTERN TEST RANGE (AFETR)
Your satellite tracking list
Your tracking list is empty




NASA's NSSDC Master Catalog

Two Line Element Set (TLE):
1 13651U 82110B   25189.74155852 -.00000255  00000-0  00000-0 0  9993
2 13651  12.8665 336.7716 0008251 125.4802 242.7273  0.99940433 43114
Source of the keplerian elements: AFSPC